Torna al catalogo

STARLINK-35760

AttivoComunicazioniVLEO
NORAD 66274·PAYLOAD·🇺🇸 United States

Lanciato Oct 31, 2025 da Vandenberg Space Force Base

Loading…

Prossimi Passaggi (prossime 24 ore)

TLE

AggiornatoSource: CelesTrak SupGP

Epoca: Sep 14, 2026, 20:59 UTC

1 66274C 25247K   26257.87479167  .00039068  00000+0  11550-2 0  2572
2 66274  53.1604  29.6835 0001249  80.0130 194.6290 15.34350463    13

Traccia STARLINK-35760 in tempo reale con AllMySat

Download on the App Store